Location: DARK SKY Beskydy - Park tmavé oblohy, www.darkskybeskydy.cz
(49.4926°N, 18.5016°E)
Time: 03:12:46
(UTC+02:00)

A-11 Canister half - Pass Details

Date: 25 February 2024
Orbit: 1513 x 1686 km, 47.2° (Epoch: 24 April)

Event Time Altitude Azimuth Distance (km) Brightness Sun altitude
Rises 05:34:32 0° 276° (W) 4,922 - -11.0°
Reaches altitude 10° 05:37:43 10° 275° (W) 3,919 - -10.5°
Exits shadow 05:38:18 12° 275° (W) 3,741 10.3 -10.4°
Maximum altitude 05:47:42 74° 194° (SSW) 1,684 9.2 -8.9°
Drops below altitude 10° 05:57:19 10° 111° (ESE) 3,784 12.6 -7.3°
Sets 06:00:21 0° 110° (ESE) 4,745 13.5 -6.8°
